Location: Bacea
(45.9500°N, 22.6667°E)
Time: 23:14:18
(UTC+00:00)

BREEZE-M DEB (TANK) - Pass Details

Date: 16 October 2021
Orbit: 333 x 14802 km, 49.5° (Epoch: 24 November)

Event Time Altitude Azimuth Distance (km) Brightness Sun altitude
Rises 16:12:30 0° 270° (W) 7,617 11.3 -6.2°
Reaches altitude 10° 16:19:42 10° 274° (W) 4,719 9.4 -7.4°
Maximum altitude 16:29:01 58° 353° (N) 889 4.1 -9.0°
Enters shadow 16:31:56 13° 73° (ENE) 1,543 4.7 -9.5°
